Weather History for Rochester, NY

Change the Weather History Date:

Monday, June 10, 2013

  Actual Average Record
Temperature  
Mean Temperature 67 °F 65 °F  
Max Temperature 72 °F 75 °F 94 °F (1947)
Min Temperature 62 °F 55 °F 37 °F (1988)
Degree Days  
Heating Degree Days 0 3  
Month to date heating degree days 37 38  
Since 1 June heating degree days 37 38  
Since 1 July heating degree days 6035 6616  
Cooling Degree Days 2 3  
Month to date cooling degree days 17 22  
Year to date cooling degree days 88 52  
Since 1 June cooling degree days 17 22  
Growing Degree Days 17 (Base 50)    
Moisture  
Dew Point 60 °F    
Average Humidity 78    
Maximum Humidity 93    
Minimum Humidity 63    
Precipitation  
Precipitation 0.13 in 0.11 in 1.76 in (1917)
Month to date precipitation 2.88 1.04  
Year to date precipitation 14.71 13.50  
Snow  
Snow 0.00 in 0.00 in 0.00 in ()
Month to date snowfall 0.0 0.0  
Since 1 June snowfall 0.0 0.0  
Since 1 July snowfall 78.1 99.5  
Snow Depth 0.00 in    
Sea Level Pressure  
Sea Level Pressure 29.93 in    
Wind  
Wind Speed 8 mph (ESE)    
Max Wind Speed 16 mph    
Max Gust Speed 20 mph    
Visibility 9 miles    
Events Rain    
T = Trace of Precipitation, MM = Missing Value Source: NWS Daily Summary

Daily Weather History Graph

Daily Weather History Graph

Search for Another Location

Airport:

Trip Planner

Search our weather history database for the weather conditions in past years. The results will help you decide how hot, cold, wet, or windy it might be!

Date:

Astronomy

Jun. 10, 2013 Rise Set
Actual Time 5:30 AM EDT 8:49 PM EDT
Civil Twilight 4:55 AM EDT 9:25 PM EDT
Nautical Twilight 4:10 AM EDT 10:10 PM EDT
Astronomical Twilight 3:13 AM EDT 11:07 PM EDT
Moon 7:19 AM EDT (6/10) 10:12 PM EDT (6/10)
Length of Visible Light 16h 29m
Length of Day
15h 18m
Waxing Crescent, 4% of the Moon is Illuminated
Jun 10
Waxing Crescent
Jun 16
First Quarter
Jun 23
Full
Jun 30
Last Quarter
Jul 8
New

Hourly Weather History & Observations

Time (EDT) Temp. Dew Point Humidity Pressure Visibility Wind Dir Wind Speed Gust Speed Precip Events Conditions
12:54 AM 63.0 °F 55.0 °F 75% 30.13 in 10.0 mi ESE 4.6 mph - N/A   Scattered Clouds
1:54 AM 62.1 °F 55.0 °F 78% 30.11 in 10.0 mi ESE 5.8 mph - N/A   Overcast
2:54 AM 62.1 °F 55.0 °F 78% 30.09 in 10.0 mi ESE 6.9 mph - N/A   Overcast
3:54 AM 63.0 °F 55.0 °F 75% 30.08 in 10.0 mi East 6.9 mph - N/A   Overcast
4:54 AM 63.0 °F 55.0 °F 75% 30.06 in 10.0 mi East 6.9 mph - N/A   Overcast
5:54 AM 63.0 °F 54.0 °F 72% 30.05 in 10.0 mi ESE 6.9 mph - N/A   Overcast
6:54 AM 64.0 °F 55.0 °F 73% 30.04 in 10.0 mi ESE 6.9 mph - N/A   Overcast
7:54 AM 66.9 °F 55.0 °F 66% 30.01 in 10.0 mi ESE 11.5 mph - N/A   Overcast
8:54 AM 68.0 °F 55.9 °F 65% 30.01 in 10.0 mi SE 8.1 mph - N/A   Overcast
9:54 AM 66.9 °F 59.0 °F 76% 30.00 in 10.0 mi SE 9.2 mph - 0.00 in Rain Light Rain
10:54 AM 69.1 °F 62.1 °F 78% 29.98 in 10.0 mi SE 8.1 mph - 0.00 in   Overcast
11:54 AM 71.1 °F 63.0 °F 75% 29.97 in 10.0 mi SSE 9.2 mph - 0.00 in   Overcast
12:54 PM 71.1 °F 64.0 °F 78% 29.96 in 10.0 mi SSE 9.2 mph - 0.00 in Rain Light Rain
1:27 PM 69.8 °F 64.4 °F 83% 29.94 in 10.0 mi SE 12.7 mph - 0.00 in   Overcast
1:54 PM 68.0 °F 63.0 °F 84% 29.94 in 10.0 mi SE 10.4 mph - 0.00 in Rain Light Rain
2:36 PM 66.2 °F 62.6 °F 88% 29.92 in 2.5 mi ESE 12.7 mph - 0.02 in Rain Light Rain
2:54 PM 66.9 °F 64.0 °F 90% 29.91 in 4.0 mi ESE 11.5 mph 17.3 mph 0.03 in Rain Light Rain
3:19 PM 66.2 °F 64.4 °F 94% 29.89 in 10.0 mi East 11.5 mph - 0.00 in Rain Light Rain
3:54 PM 66.9 °F 64.0 °F 90% 29.88 in 4.0 mi ESE 10.4 mph - 0.01 in Rain Light Rain
4:04 PM 66.2 °F 64.4 °F 94% 29.87 in 7.0 mi ESE 11.5 mph 19.6 mph 0.00 in Rain Light Rain
4:54 PM 66.0 °F 64.0 °F 93% 29.86 in 10.0 mi ESE 11.5 mph - 0.03 in Rain Light Rain
5:54 PM 66.0 °F 63.0 °F 90% 29.83 in 10.0 mi ESE 11.5 mph - 0.00 in   Overcast
6:33 PM 66.2 °F 62.6 °F 88% 29.81 in 10.0 mi ESE 10.4 mph - 0.00 in Rain Light Rain
6:54 PM 66.0 °F 63.0 °F 90% 29.81 in 9.0 mi ESE 9.2 mph - 0.00 in Rain Light Rain
7:54 PM 66.0 °F 63.0 °F 90% 29.79 in 10.0 mi SE 6.9 mph - 0.01 in   Overcast
8:30 PM 66.2 °F 62.6 °F 88% 29.77 in 10.0 mi SE 9.2 mph - 0.00 in Rain Light Rain
8:54 PM 66.0 °F 63.0 °F 90% 29.77 in 10.0 mi SE 6.9 mph - 0.00 in Rain Light Rain
9:54 PM 66.0 °F 64.0 °F 93% 29.75 in 10.0 mi SE 8.1 mph - 0.00 in   Overcast
10:54 PM 66.0 °F 64.0 °F 93% 29.74 in 10.0 mi SE 5.8 mph - N/A   Overcast
11:54 PM 66.0 °F 64.0 °F 93% 29.72 in 10.0 mi SSE 4.6 mph - 0.00 in   Overcast